Home   Weather   St. Louis   Past weeks

Flag for USA Past Weather in St. Louis, Missouri, USA — Yesterday and Last 2 Weeks

56 °F


Feels Like: 55 °F
Forecast: 54 / 76 °F
Wind: 6 mph from Southwest

Location: Lambert-St. Louis International Airport

Current Time: Oct 23, 2016 at 4:54:24 AM

Latest Report: Oct 23, 2016 at 3:51 AM

Visibility: 10 mi

Pressure: 30.04 "Hg

Humidity: 62%

Dew Point: 43 °F

Location of St. LouisLocation

Past Weather in St. Louis — Graph


St. Louis Temperature Yesterday

Maximum temperature yesterday: 69 °F (at 3:51 PM)
Minimum temperature yesterday: 42 °F (at 5:51 AM)
Average temperature yesterday: 56 °F

High & Low Weather Summary for the Past Weeks

High91 °F (Oct 17, 2:51 PM)90% (Oct 19, 7:59 PM)30.37 "Hg (Oct 19, 7:59 PM)
Low42 °F (Oct 21, 6:51 AM)26% (Oct 9, 1:51 PM)29.56 "Hg (Oct 17, 4:51 PM)
Average64 °F63%30.08 "Hg
* Reported Oct 8 2:51 AM — Oct 23 2:51 AM, St. Louis, Weather by CustomWeather, © 2016

Note: Actual official high and low records may vary slightly from our data, if they occured in-between our weather recording intervals... More about our weather records


St. Louis Weather History for the Previous 24 Hours

Scroll right to see more
Time TempWeatherWind HumidityBarometerVisibility
2:51 AM
Sun, Oct 23
56 °FClear.7 mph62%30.05 "Hg10 mi
1:51 AM57 °FClear.3 mph60%30.04 "Hg10 mi
12:51 AM58 °FClear.6 mph58%30.03 "Hg10 mi
11:51 PM
Sat, Oct 22
59 °FClear.7 mph56%30.03 "Hg10 mi
10:51 PM59 °FClear.7 mph56%30.04 "Hg10 mi
9:51 PM61 °FClear.8 mph52%30.04 "Hg10 mi
8:51 PM62 °FClear.10 mph50%30.05 "Hg10 mi
7:51 PM63 °FClear.9 mph48%30.05 "Hg10 mi
6:51 PM64 °FClear.7 mph45%30.05 "Hg10 mi
5:51 PM67 °FSunny.8 mph39%30.04 "Hg10 mi
4:51 PM69 °FSunny.8 mph36%30.05 "Hg10 mi
3:51 PM69 °FSunny.10 mph36%30.05 "Hg10 mi
2:51 PM68 °FSunny.7 mph35%30.07 "Hg10 mi
1:51 PM67 °FSunny.7 mph41%30.10 "Hg10 mi
12:51 PM65 °FSunny.7 mph45%30.13 "Hg10 mi
11:51 AM64 °FSunny.10 mph45%30.16 "Hg10 mi
10:51 AM59 °FSunny.6 mph51%30.18 "Hg10 mi
9:51 AM55 °FSunny.6 mph55%30.18 "Hg10 mi
8:51 AM50 °FSunny.5 mph71%30.19 "Hg10 mi
7:51 AM44 °FSunny.No wind79%30.17 "Hg8 mi
6:51 AM43 °FClear.3 mph82%30.16 "Hg9 mi
5:51 AM42 °FClear.No wind85%30.17 "Hg9 mi
4:51 AM43 °FClear.No wind86%30.15 "Hg9 mi
Weather by CustomWeather, © 2016

See weather overviewHow to use our weather pages